Waarnemingen

Advertentie
Mijn weer
Ronneby, Zweden (2664): temperatuur & dauwpunt: 20.09.2018 05:00:00 - 26.09.2018 05:00:00 (CEST)Ronneby, Zweden (2664): windsnelheid & windstoten: 20.09.2018 05:00:00 - 26.09.2018 05:00:00 (CEST)Ronneby, Zweden (2664): windrichting: 20.09.2018 05:00:00 - 26.09.2018 05:00:00 (CEST)Ronneby, Zweden (2664): luchtdruk: 20.09.2018 05:00:00 - 26.09.2018 05:00:00 (CEST)Ronneby, Zweden (2664): zicht: 20.09.2018 05:00:00 - 26.09.2018 05:00:00 (CEST)Ronneby, Zweden (2664): neerslag: 20.09.2018 05:00:00 - 26.09.2018 05:00:00 (CEST)
Datum & Tijd tt [°C] td [°C] ff [km/u] ff [kn] fx [km/u] fx [kn] dd ppp [hPa] vv [km] rr [mm]
26.09.2018 05:00:00 10,0 7,0 18 10 - - WZW - 10 -
26.09.2018 04:00:00 9,4 7,2 16 9 32 18 WZW 1027,2 10 0,0
26.09.2018 03:00:00 8,8 6,9 13 7 22 12 ZW 1028,4 10 0,0
26.09.2018 02:00:00 8,5 6,6 9 5 18 10 ZW 1029,4 10 0,0
26.09.2018 01:00:00 8,2 5,8 9 5 18 10 ZW 1030,1 10 0,0
26.09.2018 00:00:00 7,9 5,4 11 6 22 12 WZW 1030,6 10 0,0
25.09.2018 23:00:00 8,3 5,4 9 5 14 8 WZW 1031,3 10 0,0
25.09.2018 22:00:00 8,3 5,1 9 5 14 8 WZW 1031,7 10 0,0
25.09.2018 21:00:00 8,3 4,1 9 5 14 8 WZW 1032,2 10 0,0
25.09.2018 20:00:00 8,8 3,2 7 4 18 10 WZW 1032,0 50 0,0
25.09.2018 19:00:00 10,4 2,5 13 7 32 18 W 1032,1 10 0,0
25.09.2018 18:00:00 12,4 2,3 18 10 32 18 W 1031,8 10 0,0
25.09.2018 17:00:00 13,1 0,1 16 9 29 16 W 1031,5 10 0,0
25.09.2018 16:00:00 13,8 -1,4 15 8 32 18 W 1031,9 10 0,0
25.09.2018 15:00:00 13,6 -1,2 15 8 25 14 WNW 1032,1 10 0,0
25.09.2018 14:00:00 12,9 -1,1 18 10 29 16 WNW 1032,6 10 0,0
25.09.2018 13:00:00 12,4 -1,5 18 10 29 16 NW 1032,4 10 0,0
25.09.2018 12:00:00 11,7 -0,2 18 10 25 14 NW 1032,4 50 0,0
25.09.2018 11:00:00 10,0 1,1 9 5 18 10 NNW 1032,0 10 0,0
25.09.2018 10:00:00 8,3 2,5 9 5 14 8 NW 1031,5 10 0,0
25.09.2018 09:00:00 5,1 1,9 8 4 11 6 NNW 1031,0 10 0,0
25.09.2018 08:00:00 2,7 1,1 7 4 14 8 NW 1030,2 50 0,0
25.09.2018 07:00:00 2,0 0,5 8 4 14 8 NW 1029,4 10 0,0
25.09.2018 06:00:00 1,4 0,4 5 3 11 6 NNW 1028,8 10 0,0
25.09.2018 05:00:00 2,0 0,5 5 3 11 6 NW 1028,1 10 0,0
25.09.2018 04:00:00 2,5 1,0 8 4 11 6 NW 1027,7 10 0,0
25.09.2018 03:00:00 3,2 1,2 8 4 14 8 NW 1026,8 10 0,0
25.09.2018 02:00:00 3,5 1,5 8 4 14 8 NW 1026,4 10 0,0
25.09.2018 01:00:00 3,9 1,4 11 6 14 8 WNW 1025,7 10 0,0
25.09.2018 00:00:00 4,3 1,7 11 6 14 8 WNW 1024,9 10 0,0
24.09.2018 23:00:00 4,7 1,5 9 5 14 8 WNW 1024,0 10 0,0
24.09.2018 22:00:00 5,3 1,2 8 4 14 8 WNW 1023,2 10 0,0
24.09.2018 21:00:00 6,6 0,7 9 5 14 8 WNW 1022,2 10 0,0
24.09.2018 20:00:00 8,6 0,1 5 3 18 10 NW 1021,0 10 0,0
24.09.2018 19:00:00 10,2 -0,3 9 5 25 14 NW 1019,8 10 0,0
24.09.2018 18:00:00 12,0 -0,9 18 10 36 19 NW 1019,0 10 0,0
24.09.2018 17:00:00 12,6 -1,0 24 13 40 21 NW 1018,3 10 0,0
24.09.2018 16:00:00 12,7 -0,2 24 13 43 23 NW 1017,7 10 0,0
24.09.2018 15:00:00 13,1 0,1 28 15 43 23 WNW 1017,0 10 0,0
24.09.2018 14:00:00 12,9 0,3 21 11 43 23 NW 1016,3 10 0,0
24.09.2018 13:00:00 12,2 0,9 22 12 40 21 NNW 1015,7 10 0,0
24.09.2018 12:00:00 11,5 2,5 22 12 36 19 NW 1015,2 10 0,0
24.09.2018 11:00:00 10,5 3,3 16 9 32 18 NNW 1014,5 10 0,0
24.09.2018 10:00:00 9,6 3,6 15 8 29 16 NNW 1013,6 10 0,0
24.09.2018 09:00:00 7,5 5,1 13 7 22 12 NNW 1012,2 10 0,0
24.09.2018 08:00:00 5,2 4,3 15 8 22 12 NW 1011,1 10 0,0
24.09.2018 07:00:00 4,7 4,0 8 4 18 10 NW 1010,0 10 0,0
24.09.2018 06:00:00 4,6 4,2 9 5 18 10 NW 1009,5 10 0,0
24.09.2018 05:00:00 4,7 4,3 8 4 14 8 WNW 1008,6 10 0,0
24.09.2018 04:00:00 5,0 4,6 11 6 14 8 NW 1008,0 10 0,0
24.09.2018 03:00:00 4,6 4,3 9 5 14 8 WNW 1007,3 10 0,0
24.09.2018 02:00:00 5,0 4,7 9 5 11 6 WNW 1006,8 10 0,0
24.09.2018 01:00:00 5,4 5,0 8 4 11 6 WNW 1006,4 10 0,0
24.09.2018 00:00:00 5,9 5,5 8 4 11 6 W 1006,0 10 0,0
23.09.2018 23:00:00 6,7 6,0 8 4 14 8 WNW 1005,5 10 0,0
23.09.2018 22:00:00 7,3 6,4 9 5 14 8 WNW 1005,2 10 0,0
23.09.2018 21:00:00 8,1 6,7 8 4 14 8 W 1005,4 10 0,0
23.09.2018 20:00:00 8,9 6,3 8 4 18 10 WZW 1005,2 10 0,0
23.09.2018 19:00:00 10,3 6,8 11 6 22 12 W 1005,2 10 0,0
23.09.2018 18:00:00 11,7 6,8 15 8 25 14 W 1005,0 10 0,0
23.09.2018 17:00:00 12,9 6,7 18 10 32 18 W 1005,4 10 0,0
23.09.2018 16:00:00 13,8 6,2 24 13 40 21 W 1005,4 10 0,0
23.09.2018 15:00:00 14,3 5,9 24 13 47 25 W 1005,6 10 0,0
23.09.2018 14:00:00 14,8 7,1 26 14 40 21 W 1006,0 10 0,0
23.09.2018 13:00:00 13,6 6,7 26 14 43 23 W 1006,3 10 0,0
23.09.2018 12:00:00 13,2 6,5 24 13 40 21 W 1006,4 10 0,0
23.09.2018 11:00:00 12,7 7,8 13 7 50 27 W 1006,6 10 0,0
23.09.2018 10:00:00 11,9 8,0 22 12 40 21 W 1006,5 10 0,0
23.09.2018 09:00:00 10,6 8,0 16 9 25 14 W 1006,4 10 0,0
23.09.2018 08:00:00 9,4 7,7 15 8 25 14 WZW 1006,4 10 0,0
23.09.2018 07:00:00 9,0 7,6 15 8 25 14 WZW 1006,0 10 0,0
23.09.2018 06:00:00 9,1 7,7 13 7 22 12 WZW 1006,2 10 0,0
23.09.2018 05:00:00 9,0 7,8 11 6 22 12 W 1006,6 10 0,0
23.09.2018 04:00:00 9,4 7,8 15 8 25 14 WZW 1006,5 10 0,0
23.09.2018 03:00:00 9,7 8,0 15 8 25 14 WZW 1006,5 10 0,0
23.09.2018 02:00:00 9,5 7,8 15 8 25 14 WZW 1006,6 10 0,0
23.09.2018 01:00:00 9,4 7,3 13 7 25 14 WZW 1006,7 10 0,0
23.09.2018 00:00:00 9,5 7,3 11 6 25 14 ZW 1006,7 10 0,0
22.09.2018 23:00:00 9,3 7,1 13 7 22 12 ZW 1006,8 10 0,0
22.09.2018 22:00:00 8,1 6,2 8 4 25 14 ZZW 1007,2 10 0,0
22.09.2018 21:00:00 7,3 6,1 5 3 25 14 ZZW 1007,5 10 0,0
22.09.2018 20:00:00 8,8 6,6 9 5 29 16 WZW 1007,5 10 0,0
22.09.2018 19:00:00 9,9 7,7 13 7 29 16 WZW 1007,3 10 0,0
22.09.2018 18:00:00 10,6 8,7 13 7 25 14 WZW 1007,5 10 0,0
22.09.2018 17:00:00 10,0 8,9 11 6 58 31 ZW 1007,5 10 0,8
22.09.2018 16:00:00 10,7 6,8 24 13 58 31 ZW 1008,3 10 1,0
22.09.2018 15:00:00 12,7 8,4 18 10 40 21 ZW 1007,4 10 0,0
22.09.2018 14:00:00 10,8 8,6 18 10 54 29 WZW 1008,0 10 0,5
22.09.2018 13:00:00 13,6 7,1 29 16 43 23 WZW 1007,7 10 0,0
22.09.2018 12:00:00 13,9 7,9 28 15 50 27 W 1007,2 10 0,0
22.09.2018 11:00:00 12,8 8,1 24 13 47 25 WZW 1007,0 10 0,0
22.09.2018 10:00:00 11,9 7,8 24 13 43 23 WZW 1006,4 10 0,0
22.09.2018 09:00:00 11,2 7,5 24 13 43 23 WZW 1005,4 10 0,0
22.09.2018 08:00:00 10,6 7,5 24 13 43 23 WZW 1004,7 10 0,0
22.09.2018 07:00:00 10,3 7,2 21 11 36 19 WZW 1003,9 10 0,0
22.09.2018 06:00:00 10,3 7,2 18 10 32 18 WZW 1003,2 10 0,0
22.09.2018 05:00:00 10,2 7,6 16 9 32 18 ZW 1002,5 10 0,0
22.09.2018 04:00:00 9,5 7,4 13 7 32 18 WZW 1002,4 10 0,0
22.09.2018 03:00:00 10,7 8,5 13 7 32 18 WZW 1001,9 10 0,1
22.09.2018 02:00:00 10,6 8,0 16 9 32 18 ZW 1001,5 10 0,0
22.09.2018 01:00:00 10,5 7,9 16 9 32 18 ZW 1001,1 10 0,0
22.09.2018 00:00:00 10,4 8,5 13 7 32 18 ZW 1001,1 10 0,0
21.09.2018 23:00:00 11,3 9,0 16 9 32 18 ZW 1000,8 10 0,0
21.09.2018 22:00:00 11,5 10,4 13 7 22 12 ZW 1000,4 10 0,0
21.09.2018 21:00:00 11,3 10,8 11 6 22 12 ZW 1000,0 10 0,0
21.09.2018 20:00:00 11,0 10,5 9 5 32 18 ZZW 998,7 10 1,0
21.09.2018 19:00:00 11,5 10,7 11 6 43 23 WZW 999,6 10 3,0
21.09.2018 18:00:00 13,4 12,1 31 17 58 31 W 999,2 7 6,0
21.09.2018 17:00:00 20,3 16,3 21 11 36 19 Z 995,9 10 0,0
21.09.2018 16:00:00 20,9 16,5 22 12 40 21 Z 997,6 10 0,0
21.09.2018 15:00:00 20,6 16,4 28 15 47 25 Z 999,0 10 0,0
21.09.2018 14:00:00 20,9 16,7 29 16 47 25 Z 999,8 10 0,0
21.09.2018 13:00:00 20,8 16,0 26 14 43 23 Z 1000,2 10 0,0
21.09.2018 12:00:00 20,8 16,0 26 14 43 23 Z 1001,3 10 0,0
21.09.2018 11:00:00 20,4 16,4 22 12 43 23 Z 1002,7 10 0,0
21.09.2018 10:00:00 21,2 15,3 24 13 40 21 Z 1003,1 10 0,0
21.09.2018 09:00:00 20,4 15,0 21 11 32 18 Z 1004,2 10 0,0
21.09.2018 08:00:00 18,1 15,5 15 8 25 14 Z 1005,2 10 0,0
21.09.2018 07:00:00 15,0 14,0 5 3 - - ZO - 10 -
21.09.2018 06:00:00 15,9 15,3 9 5 14 8 ZZO 1007,2 10 0,0
21.09.2018 05:00:00 15,3 14,8 8 4 11 6 ZZO 1008,1 10 0,0
21.09.2018 04:00:00 15,2 14,9 5 3 11 6 Z 1009,3 10 0,0
21.09.2018 03:00:00 15,3 14,8 5 3 7 4 Z 1009,9 10 0,0
21.09.2018 02:00:00 14,9 14,1 5 3 11 6 ZZO 1010,6 10 0,0
21.09.2018 01:00:00 17,2 15,4 8 4 14 8 ZZW 1011,2 10 0,0
21.09.2018 00:00:00 17,1 15,8 8 4 14 8 ZZW 1011,4 10 0,0
20.09.2018 23:00:00 16,6 15,6 9 5 14 8 Z 1011,7 10 0,0
20.09.2018 22:00:00 16,8 15,0 8 4 14 8 ZZW 1012,1 10 0,0
20.09.2018 21:00:00 16,5 14,9 5 3 14 8 ZZW 1012,4 10 0,0
20.09.2018 20:00:00 17,0 14,5 8 4 18 10 ZZW 1012,6 10 0,0
20.09.2018 19:00:00 17,9 15,0 9 5 22 12 ZZW 1012,3 10 0,0
20.09.2018 18:00:00 18,2 15,3 15 8 29 16 ZW 1012,4 10 0,0
20.09.2018 17:00:00 18,9 15,4 15 8 32 18 ZW 1012,2 10 0,0
20.09.2018 16:00:00 19,2 15,5 18 10 36 19 ZW 1012,4 10 0,0
20.09.2018 15:00:00 19,7 15,8 21 11 40 21 ZZW 1012,5 10 0,0
20.09.2018 14:00:00 20,3 16,1 22 12 40 21 ZZW 1012,9 10 0,0
20.09.2018 13:00:00 19,8 16,1 22 12 36 19 ZZW 1013,1 10 0,0
20.09.2018 12:00:00 19,4 15,9 16 9 36 19 ZW 1013,3 10 0,0
20.09.2018 11:00:00 19,1 15,6 18 10 32 18 ZW 1013,5 10 0,0
20.09.2018 10:00:00 18,4 15,5 16 9 29 16 ZW 1013,8 10 0,0
20.09.2018 09:00:00 17,3 14,9 15 8 29 16 ZW 1013,4 10 0,0
20.09.2018 08:00:00 16,5 14,7 11 6 22 12 ZW 1013,1 10 0,0
20.09.2018 07:00:00 16,2 14,4 13 7 22 12 ZW 1012,8 10 0,0
20.09.2018 06:00:00 16,1 14,3 11 6 18 10 ZZW 1012,8 10 0,0
20.09.2018 05:00:00 14,8 13,7 9 5 14 8 ZZW 1012,7 10 0,0

tt = temperatuur
td = dauwpunt
ff = windsnelheid
fx = windstoten
dd = windrichting
ppp = luchtdruk
vv = zicht
rr = neerslag

Weerstations in de omgeving